IUS R/B(1), 26882

Orbit data source: Space-Track

IUS R/B(1), 26882 is space debris in HEO originally from a launch on Mon, 06 Aug 2001 UTC launched from the Air Force Eastern Test Range (AFETR). Debris objects in space refer to the collection of defunct objects orbiting the Earth. Examples of debris include non-operational satellites, rocket bodies, and fragments generated from explosions, collisions, or faulty payload assembly.

Loading next visibility...
Identifier
26882, 2001-033C
Orbit
HEO
Country
Flag of USUS
Related business
Manufacturer
PW CSD
Mission
Spacecraft
Bus & Motor
ORBUS 21, ORBUS 21
Mass
1,164 kg wet, 1,164 kg dry
Launch date (UTC)
2001-08-06 (25 years ago)
Launch vehicle
Unknown
Launch site
Air Force Eastern Test Range (AFETR)
Object type
Payload
Rocket body
Debris
Shape & HBR
Cyl, Unknown HBR
Radar Cross Section
8.491 m², Large (>1 m²)

Expand to show TLE details & history
Last TLE update: 16 hours ago

TLE from 16 hours ago
0 IUS R/B(1)
1 26882U 01033C   26037.27543277  .00000975  00000-0  87923-3 0  9991
2 26882  28.3728  57.0585 7074474 187.8197 148.3664  2.51033002 59262
Epoch: 2026-02-06T06:36Z
TLE epoch observation values (Epoch: 2026-02-06T06:36:37.391Z)
Latitude
0.00002°
Longitude
-178.50533°
Altitude
31,793.315 km
Speed
1.859 km/s
True Right ascension
03h 48m 15s
True Declination
0° 00' 00"
Sunlit
Object was in daylight at epoch
Visualization orbit readout
Latitude
Unknown
Longitude
Unknown
Altitude
Unknown
Speed
Unknown
Apparent Right ascension
Unknown
Apparent Declination
Unknown
Sunlit
N/A
Visualization observer readout
Local Sidereal Time
00:21:44
Azimuth
Unknown
Elevation
Unknown
Doppler factor
Unknown
Orbital elements
Apogee altitude
32,675.732 km
Perigee altitude
313.32 km
Semi-major axis
22,872.663 km
Eccentricity
0.70745
Inclination
28.3728°
RAAN
57.0585°
Arg. of periapsis
187.8197°
True anomaly
172.21781°
Mean anomaly
148.3664°
Eccentric anomaly
161.33715°
Mean motion
0.62743 °/min
Orbital period
573.77 mins
BSTAR
0.00087923
Loading maneuver chart data...
Computing Atmospheric mass density...
Loading historical data...
Loading historical data...
Loading historical data...
Loading historical data...
Loading historical data...
Loading historical data...
Loading historical data...
Other satellites on launch #33 in the year 2001 (2001-08-06 UTC)

Documentation

Showing up to 5 results
|